Starlink 31108

operational
NORAD ID: 58738 Int'l Des: 2024-005 Owner: SPXS Country: US Constellation: starlink
LEOCIRCULAR

Starlink 31108について

説明を読み込み中...

リアルタイム位置

3D地球を読み込み中...

次回通過

高度履歴

Altitude vs Time

uPlot chart will show altitude changes over time

軌道要素

1 58738U 24005L 25354.21529567 .00000170 00000-0 27688-4 0 9991
2 58738 43.0030 293.7167 0001223 271.0237 89.0465 15.02535322108456
Epoch: Dec 20, 2025 • Age: 7 hours

現在のステータス

高度 567.4 km
速度 7.58 km/s
衛星直下点 -32.26°S, 123.59°W
打ち上げ日 Jan 7, 2024
運用期間 1.9 years
タイプ internet

技術仕様

分類 Payload
質量 730.00 kg
乾燥質量 700.00 kg
総質量 730.00 kg
長さ 0.30 m
直径 4.10 m
スパン 29.00 m
形状 Box + pan
製造者 SPXS
バスタイプ Starlink V2M
フェーズステータス In Orbit
所有者/国 SPXS/US

大規模コンステレーション

Loading constellations...